Helicity
38 39 42 49 57 63 104 114 158 148 188 180 145 220 272 237 144 135 130 181 189 184 137 113 147 135 205 247 129 99 142 170 151 56 94 195 243 250 183 309 229 330 248 182
46 49 56 58 63 69 89 132 117 140 151 207 179 192 231 205 172 173 173 145 159 130 104 134 74 131 112 89 123 104 118 113 122 118 45 82 107 139 147 176 227 219 248 227
47 47 55 66 73 78 118 132 154 176 168 151 139 165 146 153 111 124 142 153 144 133 147 129 117 104 34 15 -18 -5 4 12 95 154 168 203 238 347 309 175 182 220 253 145
41 45 53 71 82 98 138 162 141 150 126 126 112 139 148 135 154 109 96 121 129 149 155 118 112 110 79 39 40 -4 -32 23 98 170 107 175 275 358 297 280 294 243 125 155
33 35 44 60 72 117 152 141 150 171 152 154 96 102 120 93 107 97 124 123 62 58 111 107 129 158 105 27 -4 67 73 55 49 53 -41 -157 126 212 289 304 267 291 319 246
28 31 37 50 60 132 154 158 165 159 159 175 180 176 134 95 86 66 64 81 125 130 109 99 111 110 62 115 127 152 204 124 16 -38 -59 -50 -100 -121 -25 74 151 306 400 359
31 29 31 47 50 99 163 114 158 172 184 164 154 133 122 110 96 81 101 97 91 94 130 118 71 101 107 167 165 162 154 103 50 18 -18 -39 -81 24 -21 -84 34 -123 49 164
26 25 20 17 26 74 134 131 170 179 156 139 109 96 86 76 63 63 50 38 37 31 86 126 132 172 232 209 182 130 108 108 108 62 52 26 -13 -41 -50 -26 -26 -50 -70 -66
33 28 26 26 23 33 143 130 160 165 147 114 113 112 80 98 96 70 60 52 60 46 88 112 91 168 352 231 78 31 146 159 120 142 95 18 4 47 -22 35 6 63 46 41
40 36 34 30 19 17 136 145 162 179 171 161 162 144 111 125 102 75 63 51 73 76 146 77 6 113 88 141 122 200 160 154 47 93 83 41 15 18 49 9 26 85 55 63
53 50 41 29 14 37 134 168 204 238 217 117 122 100 102 136 142 128 111 25 58 108 147 106 56 52 136 194 200 158 170 132 161 136 68 1 5 9 3 16 28 38 44 74
75 53 45 37 47 67 91 177 203 181 213 207 177 118 125 149 112 150 106 104 59 113 144 50 88 158 173 164 144 115 133 138 123 126 53 50 49 72 77 43 45 55 61 96
59 62 46 41 57 61 85 204 236 213 159 123 90 64 41 95 103 107 -16 13 -49 -221 5 14 134 189 334 243 174 178 130 111 105 81 50 39 58 80 77 76 53 60 81 129
59 50 45 46 48 46 49 114 188 256 241 198 72 48 93 63 24 20 40 41 57 -17 -70 -5 73 286 260 121 97 153 99 130 92 73 58 48 31 56 78 80 74 115 143 142
39 16 -21 -26 -17 3 6 64 63 244 67 -28 16 -0 23 51 -20 50 14 48 42 34 48 78 110 138 194 163 122 107 131 132 131 92 27 57 34 38 64 77 55 96 160 166
1 -11 -2 22 69 27 53 1 4 22 35 -44 -77 -148 7 90 -2 22 86 55 66 75 93 178 199 181 200 183 106 100 57 78 78 85 52 76 82 72 61 78 56 87 123 134
-11 35 102 84 43 21 30 -9 -21 93 17 3 -2 115 33 37 17 159 115 119 137 81 111 177 169 119 93 64 40 6 26 27 22 64 107 121 109 90 77 81 102 142 170 159
107 150 141 83 176 38 57 43 22 146 112 5 -3 -7 10 31 36 80 179 227 150 70 40 50 37 44 42 33 68 81 46 75 82 78 118 130 124 128 162 133 165 164 151 148
137 137 104 48 70 113 66 7 116 21 6 27 28 24 15 33 48 43 39 40 46 56 29 40 41 53 77 90 56 58 49 114 140 125 113 117 114 140 141 148 141 137 121 104
73 47 46 70 33 34 23 10 14 -3 4 14 3 29 24 28 39 38 42 66 54 31 42 62 69 63 95 104 114 125 83 70 90 126 84 47 42 92 86 81 92 98 82 86
30 33 34 39 33 9 26 20 17 23 12 19 29 32 24 34 16 28 55 48 51 35 41 81 66 129 87 42 66 95 85 44 -36 44 17 45 5 58 66 72 72 86 100 98
25 18 -10 -18 -3 23 24 22 36 21 3 21 5 17 66 60 55 67 41 41 48 29 61 75 77 28 18 24 24 41 -5 83 99 110 -14 46 61 75 84 83 88 98 115 124
4 11 17 12 33 44 15 13 18 25 23 11 19 44 45 71 80 87 71 72 51 66 47 12 33 83 -16 35 67 127 153 173 155 118 101 116 118 120 83 96 94 112 114 103
51 46 22 26 36 30 17 21 -3 3 -5 -24 13 29 22 24 43 32 33 13 13 9 15 12 25 12 35 55 81 119 127 120 83 102 115 105 105 100 92 93 74 74 48 50
-19 -8 12 -8 6 10 12 2 -0 -6 -4 -11 -46 -2 10 -2 7 -1 16 33 5 -4 37 23 3 45 82 63 53 53 37 39 61 80 91 85 74 89 84 59 52 53 67 89
-20 1 -1 4 49 56 20 17 36 3 -16 13 37 18 17 32 15 31 4 16 -2 1 26 14 83 84 82 75 68 51 47 80 85 80 63 60 62 61 62 88 76 63 65 86
-17 20 32 40 16 8 3 -2 12 -0 58 56 48 34 7 42 27 28 67 27 32 39 46 61 66 82 96 99 90 80 82 67 49 49 54 59 58 69 89 74 55 58 62 70
Wind_Speed
21 21 21 21 20 20 24 26 41 35 30 45 49 62 56 57 62 55 59 59 65 69 63 70 68 68 64 60 61 73 63 73 103 113 104 88 70 74 84 91 93 90 100 109
25 24 23 24 22 21 24 29 34 31 31 55 61 59 62 62 67 64 59 63 63 60 68 76 65 65 53 57 59 61 63 68 94 114 109 96 97 106 96 93 90 102 105 102
26 26 25 25 25 21 27 32 39 37 37 43 50 58 66 71 58 64 59 63 59 61 68 63 74 71 56 53 53 52 57 72 82 84 89 78 78 80 92 103 109 106 106 100
28 26 25 23 23 22 30 37 43 38 46 52 47 45 52 60 64 56 54 58 56 56 67 69 73 71 67 62 56 59 61 75 69 70 70 73 77 87 81 81 102 107 102 99
29 30 28 25 23 21 35 38 39 38 45 41 41 45 54 57 54 54 57 61 65 67 71 67 72 60 57 68 56 58 54 72 69 78 67 65 77 78 77 75 65 61 70 83
30 29 28 27 25 23 37 36 37 42 44 44 45 53 56 58 49 57 58 62 71 77 71 77 84 81 83 65 55 53 53 55 66 78 64 71 83 68 61 57 57 57 70 58
29 28 30 29 28 27 36 35 37 46 56 50 55 59 58 60 59 68 67 72 71 58 72 81 72 68 66 57 55 42 51 49 58 68 63 81 75 55 50 62 61 56 64 64
27 27 29 31 31 30 37 36 40 47 64 59 61 63 71 76 78 84 87 80 72 72 69 69 68 70 68 69 61 40 49 56 59 64 66 78 82 54 51 57 68 49 51 56
29 34 35 35 34 34 41 41 39 50 64 69 62 64 63 72 73 77 82 85 76 58 57 62 71 60 47 42 48 38 42 54 62 57 67 71 58 45 45 47 67 42 50 52
30 34 36 36 36 36 38 44 36 47 65 66 61 59 61 54 57 68 67 67 63 45 55 71 83 70 66 56 47 44 37 48 59 62 65 67 56 52 42 63 55 45 49 50
27 34 36 35 34 28 33 45 34 40 64 84 69 63 70 65 65 72 65 74 62 61 58 69 76 67 53 55 41 34 36 34 43 45 56 67 26 32 42 38 37 47 48 44
33 36 37 33 29 32 32 47 40 42 61 76 66 78 75 73 68 67 65 67 63 49 57 75 63 68 58 46 43 26 33 36 34 33 39 23 25 34 39 49 55 53 49 39
35 35 35 37 39 38 36 45 42 46 62 84 93 98 101 95 83 79 104 99 89 82 74 67 57 64 52 52 50 34 39 28 36 35 30 32 32 33 38 46 55 56 43 35
37 40 41 47 37 28 32 32 28 39 51 66 93 75 76 92 89 89 104 102 91 87 76 69 54 51 44 44 45 44 33 21 26 34 45 47 45 45 37 42 47 37 34 30
48 59 67 64 61 53 35 36 39 41 69 61 54 52 63 72 80 94 100 101 96 85 77 65 59 52 42 34 35 38 27 26 29 41 36 45 55 57 45 38 48 37 30 33
56 57 58 52 57 27 19 51 39 73 76 66 61 51 51 49 43 82 102 91 80 74 59 51 49 43 41 38 45 41 27 27 30 41 45 43 50 57 53 52 54 47 34 29
47 46 43 34 37 48 52 41 40 58 60 53 46 43 36 36 33 28 43 45 40 45 37 30 34 30 33 40 43 27 29 29 40 46 47 56 51 56 52 51 48 38 34 28
44 41 35 29 41 43 36 34 30 48 55 43 42 39 38 31 27 20 24 31 28 24 24 25 28 29 32 45 32 30 44 54 56 56 50 56 54 46 43 36 30 29 28 27
40 40 37 35 38 37 32 36 41 50 44 34 37 37 34 30 29 28 28 26 31 32 34 38 39 45 55 48 36 40 47 46 47 51 52 46 41 33 32 21 26 26 20 19
37 35 34 38 37 33 33 30 35 43 41 41 37 31 35 32 32 31 32 31 32 41 39 29 49 64 46 45 50 48 42 37 35 31 40 45 45 26 17 22 24 22 16 16
30 29 32 34 33 31 29 28 29 32 37 37 35 37 36 33 35 37 34 35 35 47 45 41 57 67 62 51 37 33 27 37 43 9 20 39 25 9 14 22 21 17 16 15
33 34 35 34 33 34 34 36 36 36 38 36 36 34 29 29 28 34 34 42 39 48 31 45 51 41 48 51 55 47 50 4 9 22 30 14 12 14 17 18 18 15 15 16
34 34 37 37 38 40 39 42 42 42 38 36 35 33 31 33 31 33 34 42 44 33 34 42 18 41 41 34 25 20 18 15 15 19 24 19 19 20 19 18 17 16 17 18
35 39 45 43 43 44 43 46 45 43 42 44 44 32 28 27 25 27 31 36 35 41 43 42 40 32 25 23 20 16 19 21 21 18 18 18 19 20 21 20 20 22 23 23
35 35 35 40 42 44 46 45 46 47 46 49 47 40 45 45 41 42 38 39 41 41 41 40 32 16 18 20 23 23 22 20 16 16 17 19 19 20 20 20 20 21 23 24
36 37 37 35 35 37 36 40 42 35 35 36 37 41 44 42 42 38 46 39 40 40 36 38 21 16 18 19 23 25 22 17 15 15 16 17 17 18 18 19 20 21 23 23
34 34 36 37 38 39 39 39 38 33 29 25 28 32 40 19 40 45 34 47 43 38 35 28 22 17 17 17 18 18 16 15 14 14 15 15 16 17 18 18 21 22 23 22
Wind_Direction
274 280 285 290 292 298 297 286 275 288 275 262 271 264 275 283 285 286 286 291 285 283 289 287 286 284 285 302 296 284 290 286 275 272 271 275 283 274 266 264 266 270 269 271
275 279 283 285 288 292 291 286 289 297 278 268 267 273 277 280 278 280 287 287 282 285 283 283 285 289 297 299 297 291 295 285 283 278 277 275 270 267 271 272 272 266 268 272
275 277 280 284 286 290 292 287 283 288 282 285 279 276 277 276 283 281 282 283 289 286 282 279 280 281 288 292 295 299 295 287 279 283 283 288 283 280 275 272 268 270 268 272
276 280 283 287 288 289 289 288 285 287 281 278 279 281 287 283 283 286 283 279 277 279 282 283 276 282 281 285 288 294 292 285 285 282 289 298 291 283 286 281 275 265 272 272
276 278 280 283 286 289 284 286 288 290 289 290 276 278 285 283 286 288 284 280 278 275 275 274 279 286 284 285 291 291 290 281 285 290 287 291 293 295 287 283 288 278 280 274
277 279 281 280 278 285 288 288 294 291 290 284 281 280 281 286 290 287 282 284 283 278 276 278 277 279 277 281 285 286 286 281 282 286 293 286 287 291 295 290 287 288 285 286
278 279 280 283 280 279 289 291 291 287 283 278 278 283 282 282 283 280 283 283 284 288 293 283 279 275 275 273 273 277 285 286 285 286 289 283 282 297 299 291 292 287 289 287
278 282 285 285 283 282 282 287 287 285 280 281 280 280 280 280 279 277 278 281 285 290 290 284 278 274 273 268 266 256 269 279 283 284 285 288 287 289 296 290 292 293 294 298
278 282 285 286 284 282 284 280 283 284 284 280 280 282 280 280 280 282 281 283 285 286 281 275 271 269 267 269 276 253 268 269 273 286 287 287 293 304 308 314 293 308 300 300
281 283 285 285 284 282 283 286 274 280 280 279 282 282 282 284 284 284 288 291 291 284 268 263 258 270 257 269 266 269 271 272 271 279 283 288 295 307 315 289 293 319 317 308
281 286 287 285 284 277 279 286 276 272 282 278 281 282 278 279 279 278 285 290 279 272 264 254 249 261 261 265 269 269 275 276 281 283 282 286 324 326 308 324 332 325 324 321
285 287 286 285 279 279 276 283 280 276 280 283 287 279 274 273 274 278 277 270 267 268 255 244 255 257 259 263 264 276 274 277 284 285 294 333 338 330 331 323 319 321 320 322
284 288 290 286 287 282 271 282 282 282 283 284 271 262 245 264 263 265 242 242 236 237 253 260 266 257 255 260 263 274 274 285 285 292 309 309 320 327 328 326 317 318 323 321
289 292 294 292 288 255 233 238 255 265 283 285 266 275 270 257 227 219 223 232 243 240 256 261 261 267 259 255 268 271 278 283 288 296 301 305 314 316 330 329 323 336 335 334
288 268 243 238 236 228 230 230 220 210 202 243 231 239 239 235 228 220 219 219 221 238 252 255 258 268 261 276 288 276 278 285 283 294 310 307 309 309 325 332 317 326 333 331
243 251 250 241 245 205 287 210 190 200 198 220 225 237 240 245 250 229 214 202 201 240 257 258 267 267 271 270 275 285 291 291 298 299 303 305 312 308 316 319 315 317 325 334
242 238 236 248 152 168 186 196 206 161 163 221 228 241 240 240 263 254 218 235 244 243 258 275 276 280 282 281 281 298 297 305 301 299 301 301 306 308 316 315 317 319 321 328
235 236 252 226 133 177 198 194 205 141 163 216 233 245 245 271 224 216 228 233 236 265 272 282 283 289 293 284 298 303 301 301 300 300 301 300 304 308 314 320 324 316 315 319
230 238 239 205 184 200 212 185 118 144 169 240 242 240 242 262 253 246 243 261 259 278 277 277 282 280 277 290 303 308 311 310 310 313 310 307 303 303 309 327 321 312 327 336
227 228 215 189 179 218 228 234 225 184 208 234 262 279 264 273 270 273 268 279 281 271 289 314 286 281 294 298 301 303 307 312 319 324 307 277 277 320 327 329 328 324 338 348
238 246 240 237 231 244 258 278 276 278 268 278 289 278 281 297 280 275 285 286 295 282 293 299 294 298 304 302 294 294 296 274 233 60 347 310 175 55 4 336 337 345 351 357
236 241 229 231 251 269 273 276 288 290 285 292 293 294 304 302 305 293 291 286 295 291 315 308 313 334 307 279 267 278 229 156 123 327 320 9 45 28 18 12 353 0 6 7
251 271 281 279 282 273 277 276 279 279 294 302 303 300 300 298 300 299 302 293 297 314 311 290 312 312 299 308 317 323 308 310 321 335 343 354 1 7 28 12 20 34 26 24
295 290 260 277 271 279 277 264 265 251 224 235 253 285 298 298 290 296 299 278 265 242 251 272 291 311 332 326 328 332 310 324 332 358 15 23 31 29 23 33 52 59 55 52
223 226 225 218 243 242 238 241 246 241 245 232 204 167 205 203 226 232 248 244 240 248 264 281 301 360 4 342 331 333 332 347 1 16 34 38 44 40 32 24 27 38 41 53
228 221 224 233 232 234 249 253 236 235 258 221 218 205 220 234 232 255 231 263 262 277 304 305 345 356 345 347 342 341 347 358 16 28 35 36 36 33 20 355 353 17 47 57
231 223 216 235 245 244 248 247 241 250 262 258 252 250 211 329 255 254 289 267 287 304 317 335 342 357 355 353 355 357 7 10 15 13 3 8 12 6 352 1 343 356 9 23